sat.trackr.live / text

‹ back to catalog

STARLINK-5894

NORAD 55965 · 2023-037BD

PAYLOAD ACTIVE UNKNOWN

§ Identity

Operator
Country
US
Launch date
2023-03-17
Launch site
AFWTR
Launch vehicle
Mass (kg)
RCS (m²)

Purposes: comms

External: N2YO · Heavens-Above · Gunter

§ Orbital elements

Epoch: 2026-09-20T00:11:36.829824Z

Period
96.11 min
Inclination
69.9989°
Eccentricity
0.0002644
Mean motion
14.98329343 rev/d
Perigee alt
570.2 km
Apogee alt
573.9 km
Semi-major
6,950.2 km
B*
1.3613e-5
RAAN
134.3714°
Arg perigee
266.7535°
Mean anomaly
93.3321°
Rev number
19,358

§ Raw data

STARLINK-58941 55965U 23037BD  26263.00806516  .00000069  00000+0  13613-4 0  99922 55965  69.9989 134.3714 0002644 266.7535  93.3321 14.98329343193588

JSON: /api/v1/satellites/55965 · /tle

For live sub-satellite position, see the globe view (requires WebGL).

§ Visibility from observer

Set your observer location to see the next 7 days of passes ≥ 10°. The values pass through the URL so the page stays shareable.

No JS? Fill the form by hand. The geolocation button needs JavaScript.